Station Historical Data
Daily Summary for August 28, 2017 Units:  English    Metric   Both
« Previous Day
Next Day »
Daily Weekly Monthly Yearly Custom
  High: Low: Average:
Temperature: 76.6 °F 55.6 °F 65.7 °F
Dew Point: 57.0 °F 49.6 °F 52.7 °F
Humidity: 81% 43% 65%
Wind Speed: 8.0mph 0.0mph 1.8mph
Wind Gust: 13.0mph - -
Wind- - SE
Pressure: 30.22 in 30.14 in -
Precipitation: 0.00 in    
Historical Graphs
 
 
Tabular Data for August 28, 2017
Time Temperature Dew Point Pressure Wind Wind Speed Wind Gust Humidity Rainfall Rate (Hourly)
00:04 59.8 °F 51.5 °F 30.20 in Calm   2.0 mph 74% 0.00 in
00:09 59.6 °F 51.7 °F 30.20 in Calm     75% 0.00 in
00:14 59.4 °F 51.5 °F 30.19 in East 1.0 mph 2.0 mph 75% 0.00 in
00:19 59.4 °F 51.8 °F 30.19 in Calm   5.0 mph 76% 0.00 in
00:24 59.4 °F 51.8 °F 30.19 in NE 3.0 mph 3.0 mph 76% 0.00 in
00:29 59.3 °F 51.7 °F 30.19 in Calm   3.0 mph 76% 0.00 in
00:34 59.2 °F 51.3 °F 30.19 in Calm     75% 0.00 in
00:39 59.2 °F 51.6 °F 30.19 in Calm     76% 0.00 in
00:44 59.1 °F 51.5 °F 30.19 in Calm     76% 0.00 in
00:49 59.1 °F 51.5 °F 30.19 in Calm     76% 0.00 in
00:54 58.9 °F 51.3 °F 30.19 in Calm     76% 0.00 in
00:59 58.6 °F 51.1 °F 30.20 in Calm     76% 0.00 in
01:04 58.6 °F 51.1 °F 30.20 in Calm     76% 0.00 in
01:09 58.7 °F 51.2 °F 30.19 in Calm     76% 0.00 in
01:14 58.8 °F 51.2 °F 30.19 in Calm     76% 0.00 in
01:19 58.8 °F 51.2 °F 30.19 in Calm     76% 0.00 in
01:24 58.8 °F 51.2 °F 30.19 in Calm     76% 0.00 in
01:29 58.8 °F 51.2 °F 30.19 in Calm     76% 0.00 in
01:34 58.8 °F 51.2 °F 30.19 in Calm     76% 0.00 in
01:39 58.7 °F 51.2 °F 30.19 in Calm     76% 0.00 in
01:44 58.6 °F 51.1 °F 30.19 in Calm     76% 0.00 in
01:49 58.6 °F 51.1 °F 30.18 in Calm   2.0 mph 76% 0.00 in
01:54 58.6 °F 51.1 °F 30.18 in Calm   2.0 mph 76% 0.00 in
01:59 58.4 °F 50.9 °F 30.18 in Calm     76% 0.00 in
02:04 58.1 °F 50.9 °F 30.18 in Calm     77% 0.00 in
02:09 58.0 °F 50.8 °F 30.18 in Calm     77% 0.00 in
02:14 57.9 °F 50.7 °F 30.18 in Calm     77% 0.00 in
02:19 57.8 °F 50.6 °F 30.18 in Calm     77% 0.00 in
02:24 57.7 °F 50.5 °F 30.18 in Calm     77% 0.00 in
02:29 57.7 °F 50.5 °F 30.18 in Calm     77% 0.00 in
02:34 57.4 °F 50.2 °F 30.18 in Calm     77% 0.00 in
02:39 57.2 °F 50.4 °F 30.18 in Calm     78% 0.00 in
02:44 57.1 °F 50.3 °F 30.18 in Calm     78% 0.00 in
02:49 57.0 °F 50.2 °F 30.18 in Calm     78% 0.00 in
02:54 57.0 °F 50.2 °F 30.18 in Calm     78% 0.00 in
02:59 56.9 °F 50.1 °F 30.18 in Calm     78% 0.00 in
03:04 56.8 °F 50.4 °F 30.18 in Calm     79% 0.00 in
03:09 56.5 °F 50.1 °F 30.18 in Calm     79% 0.00 in
03:14 56.6 °F 50.2 °F 30.18 in Calm     79% 0.00 in
03:19 56.7 °F 50.3 °F 30.18 in Calm     79% 0.00 in
03:24 56.7 °F 50.3 °F 30.17 in Calm     79% 0.00 in
03:29 56.7 °F 50.3 °F 30.17 in Calm     79% 0.00 in
03:34 56.7 °F 50.3 °F 30.17 in Calm     79% 0.00 in
03:39 56.8 °F 50.4 °F 30.17 in Calm   3.0 mph 79% 0.00 in
03:44 56.8 °F 50.4 °F 30.17 in Calm     79% 0.00 in
03:49 56.8 °F 50.0 °F 30.17 in Calm     78% 0.00 in
03:54 56.7 °F 50.3 °F 30.17 in Calm     79% 0.00 in
03:59 56.7 °F 49.9 °F 30.17 in Calm     78% 0.00 in
04:04 56.6 °F 50.2 °F 30.17 in Calm     79% 0.00 in
04:09 56.5 °F 50.1 °F 30.17 in Calm     79% 0.00 in
04:14 56.4 °F 50.0 °F 30.17 in Calm     79% 0.00 in
04:19 56.4 °F 50.0 °F 30.17 in Calm     79% 0.00 in
04:24 56.4 °F 50.0 °F 30.17 in Calm     79% 0.00 in
04:29 56.2 °F 49.8 °F 30.17 in Calm     79% 0.00 in
04:34 56.2 °F 49.8 °F 30.17 in Calm   3.0 mph 79% 0.00 in
04:39 56.2 °F 49.8 °F 30.17 in SE 1.0 mph 2.0 mph 79% 0.00 in
04:44 56.2 °F 49.8 °F 30.18 in Calm   2.0 mph 79% 0.00 in
04:49 56.2 °F 49.8 °F 30.18 in Calm   1.0 mph 79% 0.00 in
04:54 56.1 °F 49.7 °F 30.18 in Calm     79% 0.00 in
04:59 56.1 °F 49.7 °F 30.18 in Calm   2.0 mph 79% 0.00 in
05:04 56.1 °F 49.7 °F 30.18 in Calm   2.0 mph 79% 0.00 in
05:09 56.0 °F 49.6 °F 30.18 in Calm   2.0 mph 79% 0.00 in
05:14 55.9 °F 49.8 °F 30.18 in Calm   1.0 mph 80% 0.00 in
05:19 55.9 °F 49.8 °F 30.18 in Calm     80% 0.00 in
05:24 55.7 °F 49.6 °F 30.19 in Calm     80% 0.00 in
05:29 55.7 °F 49.6 °F 30.19 in Calm     80% 0.00 in
05:34 55.7 °F 49.6 °F 30.19 in Calm   3.0 mph 80% 0.00 in
05:39 55.8 °F 49.7 °F 30.19 in Calm   3.0 mph 80% 0.00 in
05:44 55.7 °F 49.6 °F 30.19 in Calm   1.0 mph 80% 0.00 in
05:49 55.7 °F 50.0 °F 30.19 in Calm     81% 0.00 in
05:54 55.7 °F 49.6 °F 30.19 in Calm     80% 0.00 in
05:59 55.7 °F 50.0 °F 30.19 in Calm     81% 0.00 in
06:04 55.6 °F 49.9 °F 30.19 in Calm     81% 0.00 in
06:09 55.6 °F 49.9 °F 30.19 in Calm   3.0 mph 81% 0.00 in
06:14 55.7 °F 50.0 °F 30.19 in Calm   1.0 mph 81% 0.00 in
06:19 55.7 °F 50.0 °F 30.19 in Calm   2.0 mph 81% 0.00 in
06:24 55.7 °F 50.0 °F 30.20 in Calm     81% 0.00 in
06:29 55.7 °F 50.0 °F 30.20 in Calm     81% 0.00 in
06:34 55.7 °F 50.0 °F 30.20 in Calm   3.0 mph 81% 0.00 in
06:39 55.9 °F 50.2 °F 30.20 in Calm   3.0 mph 81% 0.00 in
06:44 56.0 °F 49.9 °F 30.20 in Calm   2.0 mph 80% 0.00 in
06:49 56.0 °F 50.3 °F 30.20 in Calm   3.0 mph 81% 0.00 in
06:54 56.1 °F 50.0 °F 30.21 in Calm   3.0 mph 80% 0.00 in
06:59 56.2 °F 50.1 °F 30.21 in Calm     80% 0.00 in
07:04 56.2 °F 50.1 °F 30.21 in Calm     80% 0.00 in
07:09 56.3 °F 50.2 °F 30.21 in Calm   2.0 mph 80% 0.00 in
07:14 56.5 °F 50.4 °F 30.21 in Calm   2.0 mph 80% 0.00 in
07:19 56.8 °F 50.4 °F 30.21 in Calm   5.0 mph 79% 0.00 in
07:24 57.1 °F 50.6 °F 30.21 in ESE 3.0 mph 4.0 mph 79% 0.00 in
07:29 57.3 °F 50.5 °F 30.21 in Calm   3.0 mph 78% 0.00 in
07:34 57.7 °F 50.9 °F 30.21 in ESE 2.0 mph 3.0 mph 78% 0.00 in
07:39 57.9 °F 50.7 °F 30.21 in ESE 1.0 mph 4.0 mph 77% 0.00 in
07:44 58.1 °F 50.9 °F 30.21 in ESE 1.0 mph 5.0 mph 77% 0.00 in
07:49 58.4 °F 51.2 °F 30.21 in ESE 1.0 mph 6.0 mph 77% 0.00 in
07:54 58.7 °F 51.2 °F 30.21 in ESE 2.0 mph 6.0 mph 76% 0.00 in
07:59 58.9 °F 51.3 °F 30.21 in ESE 2.0 mph 6.0 mph 76% 0.00 in
08:04 59.1 °F 51.5 °F 30.21 in ESE 2.0 mph 6.0 mph 76% 0.00 in
08:09 59.3 °F 51.4 °F 30.22 in SE 1.0 mph 5.0 mph 75% 0.00 in
08:14 59.5 °F 51.6 °F 30.22 in South 2.0 mph 8.0 mph 75% 0.00 in
08:19 59.7 °F 51.8 °F 30.22 in SE 1.0 mph 6.0 mph 75% 0.00 in
08:24 59.9 °F 52.0 °F 30.22 in SE 2.0 mph 5.0 mph 75% 0.00 in
08:29 60.1 °F 51.8 °F 30.22 in SE 3.0 mph 4.0 mph 74% 0.00 in
08:34 60.3 °F 52.0 °F 30.21 in SSE 1.0 mph 6.0 mph 74% 0.00 in
08:39 60.6 °F 52.3 °F 30.22 in Calm   6.0 mph 74% 0.00 in
08:44 60.9 °F 52.6 °F 30.22 in ESE 2.0 mph 6.0 mph 74% 0.00 in
08:49 61.2 °F 52.5 °F 30.21 in ESE 2.0 mph 6.0 mph 73% 0.00 in
08:54 61.4 °F 52.7 °F 30.21 in SE 2.0 mph 6.0 mph 73% 0.00 in
08:59 61.6 °F 52.5 °F 30.22 in ESE 2.0 mph 6.0 mph 72% 0.00 in
09:04 62.1 °F 53.0 °F 30.22 in ESE 2.0 mph 5.0 mph 72% 0.00 in
09:09 62.4 °F 53.3 °F 30.22 in ESE 1.0 mph 5.0 mph 72% 0.00 in
09:14 62.7 °F 53.2 °F 30.22 in SE 2.0 mph 4.0 mph 71% 0.00 in
09:19 63.0 °F 53.1 °F 30.22 in SE 3.0 mph 4.0 mph 70% 0.00 in
09:24 63.2 °F 53.3 °F 30.22 in SSE 3.0 mph 3.0 mph 70% 0.00 in
09:29 63.5 °F 53.5 °F 30.22 in Calm   5.0 mph 70% 0.00 in
09:34 64.0 °F 54.4 °F 30.22 in SSE 1.0 mph 4.0 mph 71% 0.00 in
09:39 64.4 °F 54.4 °F 30.22 in SE 3.0 mph 4.0 mph 70% 0.00 in
09:44 64.7 °F 54.3 °F 30.22 in SE 2.0 mph 5.0 mph 69% 0.00 in
09:49 65.0 °F 54.2 °F 30.22 in SE 2.0 mph 5.0 mph 68% 0.00 in
09:54 65.1 °F 54.7 °F 30.22 in SE 2.0 mph 5.0 mph 69% 0.00 in
09:59 65.3 °F 54.9 °F 30.22 in SE 2.0 mph 5.0 mph 69% 0.00 in
10:04 65.7 °F 54.8 °F 30.22 in SSW 3.0 mph 3.0 mph 68% 0.00 in
10:09 66.4 °F 55.5 °F 30.21 in Calm   3.0 mph 68% 0.00 in
10:14 67.0 °F 56.1 °F 30.22 in Calm   3.0 mph 68% 0.00 in
10:19 67.7 °F 55.9 °F 30.21 in SSE 1.0 mph 5.0 mph 66% 0.00 in
10:24 68.4 °F 55.7 °F 30.21 in SSW 1.0 mph 7.0 mph 64% 0.00 in
10:29 69.0 °F 55.9 °F 30.21 in SSW 2.0 mph 6.0 mph 63% 0.00 in
10:34 69.4 °F 55.8 °F 30.21 in ESE 2.0 mph 8.0 mph 62% 0.00 in
10:39 69.7 °F 55.2 °F 30.21 in SSE 5.0 mph 9.0 mph 60% 0.00 in
10:44 70.4 °F 55.8 °F 30.20 in SSE 4.0 mph 9.0 mph 60% 0.00 in
10:49 70.6 °F 56.0 °F 30.21 in South 4.0 mph 7.0 mph 60% 0.00 in
10:54 70.8 °F 54.3 °F 30.20 in South 4.0 mph 11.0 mph 56% 0.00 in
10:59 70.8 °F 54.8 °F 30.21 in South 4.0 mph 11.0 mph 57% 0.00 in
11:04 70.8 °F 54.8 °F 30.20 in South 5.0 mph 10.0 mph 57% 0.00 in
11:09 71.1 °F 55.1 °F 30.20 in SSE 5.0 mph 11.0 mph 57% 0.00 in
11:14 71.1 °F 54.6 °F 30.20 in SSW 3.0 mph 9.0 mph 56% 0.00 in
11:19 71.3 °F 54.3 °F 30.20 in SSE 5.0 mph 11.0 mph 55% 0.00 in
11:24 71.6 °F 55.6 °F 30.20 in SSW 4.0 mph 8.0 mph 57% 0.00 in
11:29 71.5 °F 56.4 °F 30.20 in SE 2.0 mph 8.0 mph 59% 0.00 in
11:34 71.8 °F 56.2 °F 30.20 in South 4.0 mph 6.0 mph 58% 0.00 in
11:39 72.0 °F 56.9 °F 30.20 in SE 3.0 mph 5.0 mph 59% 0.00 in
11:44 71.6 °F 56.5 °F 30.20 in East 3.0 mph 6.0 mph 59% 0.00 in
11:49 71.4 °F 55.9 °F 30.20 in SE 3.0 mph 7.0 mph 58% 0.00 in
11:54 71.4 °F 56.8 °F 30.20 in ESE 3.0 mph 8.0 mph 60% 0.00 in
11:59 71.4 °F 55.9 °F 30.20 in ESE 3.0 mph 8.0 mph 58% 0.00 in
12:04 71.6 °F 56.5 °F 30.20 in SE 1.0 mph 10.0 mph 59% 0.00 in
12:09 72.1 °F 57.0 °F 30.20 in SSE 4.0 mph 6.0 mph 59% 0.00 in
12:14 71.4 °F 54.9 °F 30.20 in ESE 2.0 mph 10.0 mph 56% 0.00 in
12:19 71.5 °F 55.9 °F 30.20 in ESE 3.0 mph 8.0 mph 58% 0.00 in
12:24 71.7 °F 55.7 °F 30.20 in SE 3.0 mph 8.0 mph 57% 0.00 in
12:29 72.2 °F 55.6 °F 30.20 in SE 3.0 mph 8.0 mph 56% 0.00 in
12:34 72.0 °F 55.4 °F 30.20 in SE 3.0 mph 7.0 mph 56% 0.00 in
12:39 72.2 °F 55.6 °F 30.20 in SE 4.0 mph 9.0 mph 56% 0.00 in
12:44 72.3 °F 55.7 °F 30.20 in ESE 4.0 mph 7.0 mph 56% 0.00 in
12:49 72.4 °F 54.8 °F 30.20 in SW 6.0 mph 9.0 mph 54% 0.00 in
12:54 72.0 °F 53.4 °F 30.20 in SE 4.0 mph 10.0 mph 52% 0.00 in
12:59 71.9 °F 53.3 °F 30.20 in SSE 5.0 mph 10.0 mph 52% 0.00 in
13:04 71.8 °F 54.3 °F 30.20 in ESE 5.0 mph 7.0 mph 54% 0.00 in
13:09 71.9 °F 53.8 °F 30.19 in ESE 2.0 mph 8.0 mph 53% 0.00 in
13:14 72.2 °F 54.1 °F 30.19 in SSE 2.0 mph 8.0 mph 53% 0.00 in
13:19 72.3 °F 54.7 °F 30.19 in ESE 2.0 mph 7.0 mph 54% 0.00 in
13:24 72.7 °F 54.1 °F 30.19 in SE 4.0 mph 9.0 mph 52% 0.00 in
13:29 73.2 °F 54.5 °F 30.19 in SE 4.0 mph 9.0 mph 52% 0.00 in
13:34 73.2 °F 53.4 °F 30.19 in SE 4.0 mph 9.0 mph 50% 0.00 in
13:39 73.8 °F 55.1 °F 30.18 in SE 6.0 mph 8.0 mph 52% 0.00 in
13:44 74.4 °F 55.1 °F 30.19 in SW 3.0 mph 8.0 mph 51% 0.00 in
13:49 74.0 °F 54.7 °F 30.18 in SE 6.0 mph 8.0 mph 51% 0.00 in
13:54 73.7 °F 55.0 °F 30.18 in SSE 4.0 mph 9.0 mph 52% 0.00 in
13:59 74.1 °F 55.3 °F 30.18 in SSE 4.0 mph 9.0 mph 52% 0.00 in
14:04 74.0 °F 53.6 °F 30.18 in SSE 3.0 mph 8.0 mph 49% 0.00 in
14:09 73.8 °F 54.0 °F 30.18 in South 2.0 mph 9.0 mph 50% 0.00 in
14:14 74.4 °F 55.6 °F 30.18 in Calm   7.0 mph 52% 0.00 in
14:19 74.2 °F 53.8 °F 30.18 in SSE 3.0 mph 8.0 mph 49% 0.00 in
14:24 74.4 °F 54.5 °F 30.18 in SSE 3.0 mph 5.0 mph 50% 0.00 in
14:29 75.0 °F 54.0 °F 30.18 in SE 4.0 mph 11.0 mph 48% 0.00 in
14:34 74.8 °F 53.2 °F 30.17 in SE 5.0 mph 11.0 mph 47% 0.00 in
14:39 74.5 °F 54.6 °F 30.17 in SE 5.0 mph 10.0 mph 50% 0.00 in
14:44 74.4 °F 53.4 °F 30.17 in SE 5.0 mph 10.0 mph 48% 0.00 in
14:49 74.8 °F 54.4 °F 30.17 in SE 5.0 mph 10.0 mph 49% 0.00 in
14:54 75.5 °F 53.3 °F 30.17 in SSE 3.0 mph 8.0 mph 46% 0.00 in
14:59 75.2 °F 53.0 °F 30.17 in SE 4.0 mph 12.0 mph 46% 0.00 in
15:04 75.9 °F 53.6 °F 30.17 in SE 5.0 mph 12.0 mph 46% 0.00 in
15:09 75.7 °F 52.2 °F 30.16 in SE 7.0 mph 13.0 mph 44% 0.00 in
15:14 75.2 °F 53.0 °F 30.16 in ENE 3.0 mph 9.0 mph 46% 0.00 in
15:19 75.4 °F 53.2 °F 30.16 in East 5.0 mph 10.0 mph 46% 0.00 in
15:24 75.3 °F 52.5 °F 30.16 in SE 3.0 mph 10.0 mph 45% 0.00 in
15:29 74.7 °F 53.1 °F 30.16 in SE 4.0 mph 9.0 mph 47% 0.00 in
15:34 75.4 °F 54.3 °F 30.16 in ESE 4.0 mph 9.0 mph 48% 0.00 in
15:44 76.1 °F 53.8 °F 30.15 in ESE 4.0 mph 9.0 mph 46% 0.00 in
15:49 76.6 °F 53.7 °F 30.15 in ESE 4.0 mph 8.0 mph 45% 0.00 in
15:54 76.4 °F 54.7 °F 30.15 in ENE 4.0 mph 10.0 mph 47% 0.00 in
15:59 75.6 °F 53.4 °F 30.15 in ESE 7.0 mph 10.0 mph 46% 0.00 in
16:04 75.3 °F 54.3 °F 30.15 in ESE 5.0 mph 10.0 mph 48% 0.00 in
16:09 74.8 °F 53.2 °F 30.15 in SE 4.0 mph 10.0 mph 47% 0.00 in
16:14 74.6 °F 52.4 °F 30.15 in SSE 4.0 mph 11.0 mph 46% 0.00 in
16:19 74.2 °F 53.2 °F 30.15 in SE 3.0 mph 9.0 mph 48% 0.00 in
16:24 74.6 °F 52.4 °F 30.15 in ESE 3.0 mph 10.0 mph 46% 0.00 in
16:29 74.8 °F 52.6 °F 30.15 in SE 3.0 mph 10.0 mph 46% 0.00 in
16:34 75.7 °F 53.4 °F 30.15 in SE 4.0 mph 11.0 mph 46% 0.00 in
16:39 75.8 °F 52.9 °F 30.15 in ESE 4.0 mph 12.0 mph 45% 0.00 in
16:44 76.1 °F 53.8 °F 30.15 in ESE 4.0 mph 12.0 mph 46% 0.00 in
16:49 76.1 °F 53.2 °F 30.14 in ESE 4.0 mph 9.0 mph 45% 0.00 in
16:54 76.2 °F 52.7 °F 30.15 in ESE 4.0 mph 10.0 mph 44% 0.00 in
16:59 76.0 °F 52.5 °F 30.15 in SE 4.0 mph 10.0 mph 44% 0.00 in
17:04 75.8 °F 52.3 °F 30.15 in South 5.0 mph 9.0 mph 44% 0.00 in
17:09 75.7 °F 52.8 °F 30.15 in SSE 5.0 mph 10.0 mph 45% 0.00 in
17:14 75.8 °F 52.9 °F 30.15 in SE 1.0 mph 10.0 mph 45% 0.00 in
17:19 76.2 °F 52.7 °F 30.15 in SE 8.0 mph 11.0 mph 44% 0.00 in
17:24 76.0 °F 51.9 °F 30.15 in SSE 6.0 mph 10.0 mph 43% 0.00 in
17:29 75.6 °F 52.1 °F 30.15 in SSE 4.0 mph 12.0 mph 44% 0.00 in
17:34 75.5 °F 51.4 °F 30.15 in SSE 4.0 mph 8.0 mph 43% 0.00 in
17:39 75.3 °F 51.9 °F 30.15 in SE 3.0 mph 8.0 mph 44% 0.00 in
17:44 75.0 °F 52.8 °F 30.14 in SE 3.0 mph 7.0 mph 46% 0.00 in
17:49 74.8 °F 52.6 °F 30.15 in SE 3.0 mph 9.0 mph 46% 0.00 in
17:54 75.0 °F 52.8 °F 30.14 in SE 3.0 mph 9.0 mph 46% 0.00 in
17:59 74.9 °F 53.3 °F 30.14 in SE 3.0 mph 7.0 mph 47% 0.00 in
18:04 74.8 °F 53.8 °F 30.14 in ESE 3.0 mph 8.0 mph 48% 0.00 in
18:09 74.4 °F 52.9 °F 30.14 in SE 3.0 mph 8.0 mph 47% 0.00 in
18:14 74.3 °F 53.9 °F 30.14 in SE 2.0 mph 6.0 mph 49% 0.00 in
18:19 74.2 °F 53.2 °F 30.15 in ESE 2.0 mph 6.0 mph 48% 0.00 in
18:24 73.9 °F 53.5 °F 30.14 in East 1.0 mph 6.0 mph 49% 0.00 in
18:29 73.5 °F 52.6 °F 30.15 in SE 2.0 mph 8.0 mph 48% 0.00 in
18:34 73.3 °F 53.0 °F 30.14 in SE 2.0 mph 9.0 mph 49% 0.00 in
18:39 73.2 °F 52.9 °F 30.15 in SSE 3.0 mph 9.0 mph 49% 0.00 in
18:44 73.0 °F 53.3 °F 30.15 in SE 4.0 mph 9.0 mph 50% 0.00 in
18:49 72.8 °F 53.1 °F 30.15 in SE 3.0 mph 8.0 mph 50% 0.00 in
18:54 72.7 °F 53.0 °F 30.15 in SE 3.0 mph 7.0 mph 50% 0.00 in
18:59 72.5 °F 52.8 °F 30.15 in SSE 2.0 mph 6.0 mph 50% 0.00 in
19:04 72.3 °F 53.2 °F 30.15 in SSE 1.0 mph 4.0 mph 51% 0.00 in
19:09 72.1 °F 53.0 °F 30.15 in East 1.0 mph 6.0 mph 51% 0.00 in
19:14 72.0 °F 52.9 °F 30.15 in SE 2.0 mph 6.0 mph 51% 0.00 in
19:19 71.7 °F 52.6 °F 30.15 in ESE 2.0 mph 5.0 mph 51% 0.00 in
19:24 71.5 °F 52.9 °F 30.15 in SE 2.0 mph 7.0 mph 52% 0.00 in
19:29 71.3 °F 53.3 °F 30.15 in Calm   7.0 mph 53% 0.00 in
19:34 71.0 °F 53.0 °F 30.15 in ESE 1.0 mph 4.0 mph 53% 0.00 in
19:39 70.7 °F 53.2 °F 30.15 in East 1.0 mph 5.0 mph 54% 0.00 in
19:44 70.5 °F 53.6 °F 30.15 in East 1.0 mph 6.0 mph 55% 0.00 in
19:49 70.3 °F 53.9 °F 30.15 in East 2.0 mph 6.0 mph 56% 0.00 in
19:54 70.0 °F 54.1 °F 30.15 in ESE 2.0 mph 6.0 mph 57% 0.00 in
19:59 69.7 °F 54.3 °F 30.15 in ESE 3.0 mph 6.0 mph 58% 0.00 in
20:04 69.5 °F 54.1 °F 30.15 in ESE 1.0 mph 4.0 mph 58% 0.00 in
20:09 69.3 °F 54.4 °F 30.15 in ESE 3.0 mph 4.0 mph 59% 0.00 in
20:14 69.1 °F 54.2 °F 30.15 in ESE 1.0 mph 4.0 mph 59% 0.00 in
20:19 69.0 °F 54.5 °F 30.15 in ESE 2.0 mph 6.0 mph 60% 0.00 in
20:24 68.8 °F 54.3 °F 30.15 in SE 3.0 mph 6.0 mph 60% 0.00 in
20:29 68.6 °F 54.6 °F 30.15 in SE 2.0 mph 5.0 mph 61% 0.00 in
20:34 68.4 °F 54.4 °F 30.16 in SE 3.0 mph 7.0 mph 61% 0.00 in
20:39 68.2 °F 54.2 °F 30.16 in SE 2.0 mph 5.0 mph 61% 0.00 in
20:44 68.0 °F 54.5 °F 30.16 in SSE 1.0 mph 5.0 mph 62% 0.00 in
20:49 67.8 °F 54.3 °F 30.16 in SE 2.0 mph 6.0 mph 62% 0.00 in
20:54 67.6 °F 54.6 °F 30.16 in ESE 2.0 mph 6.0 mph 63% 0.00 in
20:59 67.5 °F 54.5 °F 30.16 in ESE 1.0 mph 5.0 mph 63% 0.00 in
21:04 67.3 °F 54.3 °F 30.16 in Calm   4.0 mph 63% 0.00 in
21:09 67.1 °F 54.5 °F 30.16 in SE 1.0 mph 3.0 mph 64% 0.00 in
21:14 66.9 °F 54.3 °F 30.16 in Calm   4.0 mph 64% 0.00 in
21:19 66.8 °F 54.2 °F 30.16 in SE 1.0 mph 4.0 mph 64% 0.00 in
21:24 66.7 °F 54.1 °F 30.16 in SE 1.0 mph 4.0 mph 64% 0.00 in
21:29 66.6 °F 54.0 °F 30.16 in SE 1.0 mph 5.0 mph 64% 0.00 in
21:34 66.5 °F 54.4 °F 30.16 in Calm   2.0 mph 65% 0.00 in
21:39 66.4 °F 53.8 °F 30.16 in ESE 2.0 mph 4.0 mph 64% 0.00 in
21:44 66.2 °F 54.1 °F 30.16 in ESE 1.0 mph 3.0 mph 65% 0.00 in
21:49 66.0 °F 53.9 °F 30.16 in ESE 1.0 mph 4.0 mph 65% 0.00 in
21:54 66.0 °F 53.9 °F 30.16 in ESE 1.0 mph 4.0 mph 65% 0.00 in
21:59 65.9 °F 53.8 °F 30.16 in ESE 1.0 mph 4.0 mph 65% 0.00 in
22:04 65.8 °F 53.7 °F 30.16 in ESE 1.0 mph 4.0 mph 65% 0.00 in
22:09 65.8 °F 53.7 °F 30.16 in East 1.0 mph 5.0 mph 65% 0.00 in
22:14 65.6 °F 53.5 °F 30.16 in Calm   3.0 mph 65% 0.00 in
22:19 65.4 °F 53.3 °F 30.16 in Calm   4.0 mph 65% 0.00 in
22:24 65.3 °F 53.6 °F 30.16 in Calm   4.0 mph 66% 0.00 in
22:29 65.2 °F 53.6 °F 30.16 in ESE 1.0 mph 3.0 mph 66% 0.00 in
22:34 65.0 °F 53.8 °F 30.16 in ESE 1.0 mph 3.0 mph 67% 0.00 in
22:39 64.8 °F 53.6 °F 30.16 in Calm   3.0 mph 67% 0.00 in
22:44 64.7 °F 53.5 °F 30.16 in Calm   3.0 mph 67% 0.00 in
22:54 64.4 °F 53.6 °F 30.17 in Calm   3.0 mph 68% 0.00 in
22:59 64.3 °F 53.5 °F 30.16 in ESE 1.0 mph 3.0 mph 68% 0.00 in
23:04 64.2 °F 53.4 °F 30.16 in Calm   3.0 mph 68% 0.00 in
23:09 64.1 °F 53.3 °F 30.16 in Calm   3.0 mph 68% 0.00 in
23:24 63.7 °F 53.3 °F 30.16 in Calm   3.0 mph 69% 0.00 in
23:29 63.5 °F 53.5 °F 30.16 in ESE 1.0 mph 3.0 mph 70% 0.00 in
23:34 63.4 °F 53.4 °F 30.16 in Calm   3.0 mph 70% 0.00 in
23:44 63.2 °F 53.3 °F 30.16 in ESE 2.0 mph 2.0 mph 70% 0.00 in
23:49 63.2 °F 53.3 °F 30.17 in Calm   2.0 mph 70% 0.00 in
23:54 63.1 °F 53.5 °F 30.16 in Calm     71% 0.00 in
23:59 63.1 °F 53.5 °F 30.16 in Calm   2.0 mph 71% 0.00 in
Buffalo, New York, USA
Compliments of Weather Underground - 2.5 mb